Weather in Dattakh

Russia / Chechen Republic     43°00′42″N   46°23′39″E
temp.,
°C
wind,
m/s
gust,
m/s
humid.,
%
clouds,
%
prec.,
mm/h
press.,
hPa
HPBL,
m
19 april, mon
mon1900:00+10s1183100 0.0 101722
03:00+10ssw1183100 0.0 101610
06:00+10sse118273 0.0 101613
09:00+17ene235725 0.0 1014917
12:00+19nne435362 0.1 10131381
15:00+16nne2366100 0.4 1013332
18:00+14nne227454 0.0 1014108
21:00+13s227999 0.0 101413
20 april, tue
tue2000:00+12s227997 0.0 101414
03:00+11s1178100 0.0 101218
06:00+12s2268100 0.0 101128
09:00+21se1339100 0.0 1009445
12:00+26e132698 0.0 10061526
15:00+27nw1322100 0.0 10042257
18:00+20s1157100 0.0 100614
21:00+17s3357100 0.0 100867
21 april, wed
wed2100:00+15wsw3362100 0.0 101062
03:00+12w389496 0.0 1013570
06:00+9w4890100 0.3 1016472
09:00+11wnw446786 0.3 1016745
12:00+14nw445741 0.1 10161006
15:00+10nnw3377100 0.9 1017779
18:00+8nw2391100 1.9 1019388
21:00+7wsw139393 3.6 1021262
22 april, thu
thu2200:00+7wsw119579 0.4 102194
03:00+7wnw019299 0.5 102189
06:00+7ne119448 0.0 1021123
09:00+9nne327988 0.0 1020715
12:00+8nnw2284100 0.1 1022598
15:00+7nnw2293100 0.4 1023390
18:00+6nnw2297100 0.4 1024247
21:00+6n1096100 0.5 1024147
23 april, fri
fri2300:00+6nne119798 0.0 1022134
03:00+6n2299100 0.8 1022196
06:00+5nw1198100 0.7 1023161
09:00+5wnw1393100 3.0 1024337
12:00+6w2491100 0.2 1024543
15:00+9wnw237739 0.2 1022608
18:00+9n118017 0.0 102229
21:00+6s228345 0.0 102316